Location: ???????????
(54.5822°N, 39.1075°E)
Time: 09:43:19
(UTC+00:00)

Okean 2 - Pass Details

Date: 19 May 2025
Orbit: 523 x 533 km, 82.5° (Epoch: 12 June)

Event Time Altitude Azimuth Distance (km) Brightness Sun altitude
Exits shadow 23:25:00 13° 182° (S) 1,630 5.2 -10.8°
Maximum altitude 23:28:31 72° 99° (E) 569 3.4 -10.5°
Drops below altitude 10° 23:32:28 10° 15° (NNE) 1,802 7.3 -10.2°
Sets 23:34:38 0° 13° (NNE) 2,697 8.4 -10.1°
